Location: Astroquest
(35.1187°N, 89.7105°W)
Time: 21:05:44
(UTC-05:00)

ISS - Visible Passes

Search period start: 18 October 2018 00:00
Search period end: 28 October 2018 00:00
Orbit: 403 x 408 km, 51.6° (Epoch: 19 October)

Date Brightness Start Highest point End Pass type
(mag) Time Alt. Az. Time Alt. Az. Time Alt. Az.
24 Oct -1.0 06:20:54 10° S 06:23:20 19° SE 06:25:47 10° E visible
26 Oct -3.2 06:12:24 10° SW 06:15:35 56° SE 06:18:48 10° NE visible
27 Oct -1.9 05:23:10 24° SSE 05:23:40 25° SE 05:26:27 10° ENE visible
